#timestamp,LO_Frequency,Hit,StdDev 
1710626415.6,286047010.6,P
1710626435.4,286047009.5,N
1710626455.3,286047014.0,N
1710626475.1,286047011.8,N
1710626495.8,286047009.4,N
1710626515.7,286047013.2,N
1710626535.5,286047011.3,N
1710626555.4,286047012.4,N
1710626575.2,286047011.5,N
1710626595.0,286047011.2,N
1710626595.9,286047011.2,N
1710626615.8,286047011.6,N
1710626635.6,286047013.3,Y
1710626655.5,286047001.6,P
1710626675.3,286047002.3,N
1710626695.1,286047002.6,N
1710626715.9,286047004.3,N
1710626735.7,286047003.2,N
1710626755.5,286047005.3,N
1710626775.4,286046991.9,N
1710626795.2,286046990.4,N
1710626815.1,286046994.4,N
1710626816.0,286046994.4,N
1710626835.8,286046999.9,N
1710626855.6,286047002.9,N
1710626875.5,286047002.3,N
1710626895.3,286046990.1,N
1710626915.1,286046993.2,N
1710626935.9,286046999.1,N
1710626955.7,286046991.0,N
1710626975.6,286047002.3,N
1710626995.4,286047001.0,N
1710627015.2,286047002.7,N
1710627035.1,286046992.9,N
1710627036.0,286046992.9,N
1710627055.8,286046992.2,N
1710627075.6,286046990.1,N
1710627095.5,286046992.8,N
1710627115.3,286046990.2,N
1710627135.2,286046994.6,N
1710627155.9,286046992.7,N
1710627175.7,286046992.5,N
1710627195.6,286046994.7,N
1710627215.4,286046992.3,N
1710627235.3,286046990.1,N
1710627255.1,286046994.8,N
1710627256.0,286046994.8,N
1710627275.8,286046993.6,N
1710627295.7,286046993.5,N
1710627315.5,286046993.3,N
1710627335.3,286046994.1,N
1710627355.2,286046996.1,N
1710627375.0,286046996.0,N
1710627375.9,286046996.0,N
1710627395.8,286046993.9,N
1710627415.6,286046993.8,N
1710627435.4,286046996.2,N
1710627455.3,286046996.4,N
1710627475.1,286046995.9,N
1710627495.9,286046993.7,N
1710627515.7,286046994.5,N
1710627535.5,286046994.4,N
1710627555.4,286046994.3,N
1710627575.2,286046992.1,Y
1710627595.0,286046998.9,P
1710627596.0,286046998.9,N
1710627615.8,286046996.5,N
1710627635.6,286046999.3,N
1710627655.5,286046999.5,N
1710627675.3,286046998.9,N
1710627695.1,286046997.1,N
1710627715.9,286046999.4,N
1710627735.7,286046999.2,N
1710627755.6,286046999.3,N
1710627775.4,286046999.3,N
1710627795.2,286046999.0,N
1710627815.1,286046998.5,N
1710627816.0,286046998.5,N
1710627835.8,286046996.7,N
1710627855.6,286046999.1,N
1710627875.5,286046996.5,N
1710627895.3,286046998.5,N
1710627915.2,286046999.1,N
1710627935.9,286046998.4,N
1710627955.7,286046999.4,N
1710627975.6,286046996.8,N
1710627995.4,286046996.7,N
1710628015.2,286046999.6,N
1710628035.1,286046997.5,N
1710628036.0,286046997.5,N
1710628055.8,286046996.7,N
1710628075.7,286046996.5,N
1710628095.5,286046998.4,N
1710628115.3,286046999.5,N
1710628135.2,286047001.2,N
1710628155.0,286046998.5,N
1710628155.9,286046998.5,N
1710628175.7,286046998.5,N
1710628195.6,286046999.8,N
1710628215.4,286047000.3,N
1710628235.3,286046999.0,N
1710628255.1,286046999.2,N
1710628256.0,286046999.2,N
1710628275.8,286046997.0,N
1710628295.7,286046998.7,N
1710628315.5,286046999.3,N
1710628335.4,286046997.4,N
1710628355.2,286046998.8,N
1710628375.0,286047000.3,N
1710628375.9,286047000.3,N
1710628395.8,286047000.7,N
1710628415.6,286046998.2,N
1710628435.4,286046998.7,N
1710628455.3,286046998.3,N
1710628475.1,286046998.6,N
1710628495.9,286047000.8,N
1710628515.7,286047001.1,N
1710628535.5,286046998.9,N
1710628555.4,286047000.7,N
1710628575.2,286047001.2,N
1710628595.0,286047001.0,N
1710628596.0,286047001.0,N
1710628615.8,286047001.2,N
1710628635.6,286046999.8,N
1710628655.5,286047001.2,N
1710628675.3,286046998.5,N
1710628695.1,286046998.5,N
1710628715.9,286046998.1,N
1710628735.7,286046998.6,N
1710628755.6,286046999.5,N
1710628775.4,286046998.9,N
1710628795.2,286046998.6,N
1710628815.1,286046998.8,N
1710628816.0,286046998.8,N
1710628835.8,286046999.3,N
1710628855.6,286046998.9,N
1710628875.5,286046998.4,N
1710628895.3,286046998.3,N
1710628915.2,286046998.1,N
1710628935.9,286047000.8,N
1710628955.7,286047002.8,N
1710628975.6,286047000.4,N
1710628995.4,286047000.7,N
1710629015.3,286047000.4,N
1710629035.1,286047000.5,N
1710629036.0,286047000.5,N
1710629055.8,286047001.1,N
1710629075.7,286047000.4,N
1710629095.5,286047000.0,N
1710629115.3,286047000.7,N
1710629135.2,286047000.0,N
1710629155.0,286047000.3,N
1710629155.9,286047000.3,N
1710629175.8,286047000.0,N
1710629195.6,286046999.7,N
1710629215.4,286047000.2,N
1710629235.3,286046999.9,N
1710629255.1,286047002.5,N
1710629275.9,286047002.3,N
1710629295.7,286047001.3,N
1710629315.5,286046999.8,N
1710629335.4,286047000.3,N
1710629355.2,286047000.8,N
1710629375.0,286047002.8,N
1710629375.9,286047002.8,N
1710629395.8,286047002.7,N
1710629415.6,286047002.8,N
1710629435.5,286047000.3,N
1710629455.3,286046998.2,N
1710629475.1,286046998.2,N
1710629495.9,286046998.6,N
1710629515.7,286047001.2,N
1710629535.5,286047000.7,N
1710629555.4,286047001.2,N
1710629575.2,286047001.5,N
1710629595.1,286047003.3,N
1710629596.0,286047003.3,N
1710629615.8,286047004.0,N
1710629635.6,286047001.9,N
1710629655.5,286047002.3,N
1710629675.3,286047001.8,N
1710629695.2,286047001.7,N
1710629715.9,286047002.0,N
1710629735.7,286047002.3,N
1710629755.6,286046999.7,N
1710629775.4,286047000.4,N
1710629795.2,286046998.2,N
1710629815.1,286047001.0,N
1710629816.0,286047001.0,N
1710629835.8,286047002.7,N
1710629855.7,286047002.8,N
1710629875.5,286047002.7,N
1710629895.3,286047002.3,N
1710629915.2,286047000.1,N
1710629935.0,286047002.7,N
1710629935.9,286047002.7,N
1710629955.8,286047002.6,N
1710629975.6,286047002.4,N
1710629995.4,286047000.2,N
